STARLINK-1736

Last updated on Fri Nov 06 2020 00:02:03 GMT+0000 (Coordinated Universal Time)

1 46585U 20070BF 20310.83334491 -.00041899 00000-0 -45353-3 0 9994 2 46585 53.0023 292.9308 0001109 78.2136 21.7809 15.62784972 5276

Satellite not in orbit

STARLINK-1736